Regional Weather Roundup
Issued by NWS

Home | Current Version | Previous Version | Graphics & Text | Print | Product List | Glossary On
Versions: 1 2 3 4 5 6 7 8 9 10 11 12 13 14 15 16 17 18 19 20 21 22 23 24 25 26 27 28 29 30 31 32 33 34 35 36 37 38 39 40 41 42 43 44 45 46 47 48 49 50
000
ASUS43 KMPX 290401
RWRMN
WEATHER ROUNDUP FOR MINNESOTA
NATIONAL WEATHER SERVICE TWIN CITIES/CHANHASSEN MN
1100 PM CDT SAT MAR 28 2015


NOTE: "FAIR" INDICATES FEW OR NO CLOUDS BELOW 12,000 FEET WITH NO
SIGNIFICANT WEATHER AND/OR OBSTRUCTIONS TO VISIBILITY. N/A MEANS
CURRENT SKY AND/OR WEATHER CONDITIONS ARE NOT AVAILABLE.

MNZ060>063-068>070-290500-
   Twin Cities Metro

CITY           SKY/WX    TMP DP  RH WIND       PRES   REMARKS
TWIN CITIES    CLOUDY    36  22  56 SE15      29.97F
ST PAUL        CLOUDY    35  22  58 S16       29.99F WCI  25
CRYSTAL        MOCLDY    38  22  52 S20       29.93F
EDEN PRAIRIE   MOCLDY    37  23  56 S16       29.94F
$$
MNZ001>005-007-008-013>017-022>024-027-028-290500-
   Northwest Minnesota

CITY           SKY/WX    TMP DP  RH WIND       PRES   REMARKS
THIEF RVR FALL CLOUDY    41  30  65 S16G22    29.67R
FOSSTON        MOCLDY    37  27  65 S26G35    29.66F
DETROIT LAKES  MOCLDY    39  30  70 S18G29    29.71F
PARK RAPIDS    PTCLDY    39  26  59 S21G26    29.73F
MAHNOMEN       FAIR      39  29  65 S18G30    29.66F
$$
MNZ006-009>011-018-025>026-290500-
   North Central Minnesota

CITY           SKY/WX    TMP DP  RH WIND       PRES   REMARKS
BAUDETTE       CLOUDY    38  26  62 S16G25    29.64F
INTL FALLS     CLOUDY    38  22  52 S14G24    29.71F
LONGVILLE      PTCLDY    36  25  64 S18G24    29.79F
GRAND RAPIDS   MOCLDY    36  19  51 S23G31    29.79F
CRANE LAKE     CLOUDY    36  18  48 S9G17     29.80F
WALKER         FAIR      37  25  61 S14G24    29.75F
$$
MNZ012-019>021-037-290500-
   Northeast Minnesota

CITY           SKY/WX    TMP DP  RH WIND       PRES   REMARKS
DULUTH         MOCLDY    34  16  47 S15       29.88F WCI  24
HIBBING        CLOUDY    35  17  47 S14G23    29.82F WCI  26
GRAND MARAIS     N/A     27  20  75 NW3       29.92F
$$
MNZ029>031-032-039>041-046>048-054>057-064-290500-
   West Central Minnesota

CITY           SKY/WX    TMP DP  RH WIND       PRES   REMARKS
WHEATON        MOCLDY    39  28  65 SE23      29.71F
ALEXANDRIA     MOCLDY    40  27  59 S20G30    29.78F
WADENA         PTCLDY    37  27  65 S20G29    29.76F
APPLETON       MOCLDY    43  28  56 S15G23    29.76F
WILLMAR        FAIR      37  27  65 SE17      29.85F
$$
MNZ033>034-036-042>043-049>051-058-059-290500-
   Central Minnesota

CITY           SKY/WX    TMP DP  RH WIND       PRES   REMARKS
ST CLOUD       PTCLDY    36  24  62 S17       29.88F
BRAINERD       PTCLDY    35  23  61 S17G25    29.83F WCI  25
LITTLE FALLS   PTCLDY    34  23  64 SE12      29.87F WCI  25
MAPLE LAKE     PTCLDY    37  28  70 SE9       29.93F
$$
MNZ037-044-045-052-053-290500-
   East Central Minnesota

CITY           SKY/WX    TMP DP  RH WIND       PRES   REMARKS
MORA           PTCLDY    34  21  60 S10       29.94F WCI  26
CAMBRIDGE      MOCLDY    37  23  56 SE13      29.93F
RUSH CITY      MOCLDY    34  20  57 S12G17    29.95F WCI  25
CLOQUET        CLOUDY    36  18  48 S15G24    29.90F
$$
MNZ071>073-080-081-089-090-097-098-290500-
   Southwest Minnesota

CITY           SKY/WX    TMP DP  RH WIND       PRES   REMARKS
MARSHALL       CLEAR     43  27  52 S26G35    29.80F
REDWOOD FALLS  CLEAR     39  27  62 S20       29.84F
WORTHINGTON    CLEAR     37  27  65 S23G29    29.86F
$$
MNZ065>067-074>077-082>085-091>093-290500-
   South Central Minnesota

CITY           SKY/WX    TMP DP  RH WIND       PRES   REMARKS
MANKATO        PTCLDY    37  21  52 S16G24    29.95F
ST JAMES       CLEAR     36  25  64 SE14      29.94F
FAIRMONT       CLEAR     36  21  55 S18       29.92F
OWATONNA       CLOUDY    37  21  52 S16G26    30.00F
$$
MNZ078>079-086>088-094>096-290500-
   Southeast Minnesota

CITY           SKY/WX    TMP DP  RH WIND       PRES   REMARKS
ROCHESTER      PTCLDY    33  19  56 S20G29    30.03F WCI  21
AUSTIN         PTCLDY    34  21  60 S9        30.04F WCI  26
$$
ABBREVIATIONS USED IN REMARKS
   TC - TEMPERATURES IN CELSIUS
  WCI - WIND CHILL INDEX
   HX - HEAT INDEX
  VSB - VISIBILITY
$$



USA.gov is the U.S. government's official web portal to all federal, state and local government web resources and services.